sat.trackr.live / text

‹ back to catalog

YAOGAN-40 01B

NORAD 57832 · 2023-139C

PAYLOAD ACTIVE UNKNOWN

§ Identity

Operator
Country
PRC
Launch date
2023-09-10
Launch site
TAISC
Launch vehicle
Mass (kg)
RCS (m²)

External: N2YO · Heavens-Above · Gunter

§ Orbital elements

Epoch: 2026-05-25T04:48:20.286720Z

Period
101.95 min
Inclination
85.9898°
Eccentricity
0.0001767
Mean motion
14.12442833 rev/d
Perigee alt
849.7 km
Apogee alt
852.3 km
Semi-major
7,229.2 km
B*
7.0891e-5
RAAN
270.2470°
Arg perigee
101.3342°
Mean anomaly
258.8040°
Rev number
13,946

§ Raw data

YAOGAN-40 01B1 57832U 23139C   26145.20023480  .00000150  00000+0  70891-4 0  99942 57832  85.9898 270.2470 0001767 101.3342 258.8040 14.12442833139463

JSON: /api/v1/satellites/57832 · /tle

For live sub-satellite position, see the globe view (requires WebGL).

§ Visibility from observer

Set your observer location to see the next 7 days of passes ≥ 10°. The values pass through the URL so the page stays shareable.

No JS? Fill the form by hand. The geolocation button needs JavaScript.